Torna al catalogo

IRIDIUM 168

AttivoComunicazioniPO
NORAD 43924·PAYLOAD·🇺🇸 United States

Lanciato Jan 11, 2019 da Vandenberg Space Force Base

Loading…

Prossimi Passaggi (prossime 24 ore)

TLE

AggiornatoSource: CelesTrak SupGP

Epoca: Sep 14, 2026, 21:03 UTC

1 43924C 19002C   26257.87743056 -.00001227  00000+0 -43856-3 0  2575
2 43924  86.3978 316.2070 0002322  96.7148  35.0141 14.34217604    15

Traccia IRIDIUM 168 in tempo reale con AllMySat

Download on the App Store